sat.trackr.live / text

‹ back to catalog

STARLINK-35328

NORAD 65652 · 2025-211A

PAYLOAD ACTIVE UNKNOWN

§ Identity

Operator
Country
US
Launch date
2025-09-19
Launch site
AFWTR
Launch vehicle
Mass (kg)
RCS (m²)

Purposes: comms

External: N2YO · Heavens-Above · Gunter

§ Orbital elements

Epoch: 2026-09-20T13:52:41.763360Z

Period
93.91 min
Inclination
97.2853°
Eccentricity
0.0000761
Mean motion
15.33455359 rev/d
Perigee alt
465.0 km
Apogee alt
466.0 km
Semi-major
6,843.6 km
B*
5.8711e-4
RAAN
303.7796°
Arg perigee
112.4434°
Mean anomaly
247.6890°
Rev number
5,653

§ Raw data

STARLINK-353281 65652U 25211A   26263.57826115  .00018933  00000+0  58711-3 0  99972 65652  97.2853 303.7796 0000761 112.4434 247.6890 15.33455359 56536

JSON: /api/v1/satellites/65652 · /tle

For live sub-satellite position, see the globe view (requires WebGL).

§ Visibility from observer

Set your observer location to see the next 7 days of passes ≥ 10°. The values pass through the URL so the page stays shareable.

No JS? Fill the form by hand. The geolocation button needs JavaScript.